Location: downtown San Diego
(32.7310°N, 117.1990°W)
Time: 08:33:26
(UTC-08:00)

NOSS 2-2 (D) - Pass Details

Date: 19 May 2017
Orbit: 538 x 1672 km, 63.3° (Epoch: 10 November)

Event Time Altitude Azimuth Distance (km) Brightness Sun altitude
Exits shadow 21:48:24 25° 222° (SW) 1,095 4.8 -22.4°
Maximum altitude 21:50:31 71° 301° (WNW) 584 3.5 -22.7°
Drops below altitude 10° 21:54:44 10° 26° (NNE) 1,942 6.3 -23.3°
Sets 21:57:10 0° 28° (NNE) 2,956 7.3 -23.7°
